weather.gov     
National Weather Service

Terminal Aerodrome Forecast
NWS Homepage
This page is being discontinued on March 12, 2014.
The same data is available at this site. Please update your bookmarks.
Thank you, and we apologize for the inconvenience.
Please send an email to SR-SRH.Webmaster@noaa.gov with any concerns.


Current Version
Previous Version:    01  02  03  04  05  06  07  08  09  10  11  12  13  14  15  16  17  18  19  20  21  22  23  24  25  26  27  28  29  
[Printable]
835
FTUS41 KCAR 301734
TAFFVE
TAF
KFVE 301734Z 3018/3118 32010KT P6SM BKN070
     FM302300 31006KT P6SM SCT070
     FM310900 31004KT P6SM BKN100=


835
FTUS41 KCAR 301734
TAFFVE
TAF
KFVE 301734Z 3018/3118 32010KT P6SM BKN070
     FM302300 31006KT P6SM SCT070
     FM310900 31004KT P6SM BKN100=




U.S. Dept. of Commerce
NOAA National Weather Service
1325 East West Highway
Silver Spring, MD 20910
E-mail: w-nws.webmaster@noaa.gov
Page last modified: May 16, 2007
NATIONAL WEATHER SERVICE: for Safety, for Work, for Fun - FOR LIFE